Location: Hackbridge
(51.3833°N, 0.1500°W)
Time: 23:04:38
(UTC+00:00)

USA 186 - Pass Details

Date: 13 October 2019
Orbit: 261 x 450 km, 96.9° (Epoch: 07 October)

Event Time Altitude Azimuth Distance (km) Brightness Sun altitude
Exits shadow 18:39:12 14° 31° (NNE) 1,131 3.7 -14.3°
Drops below altitude 10° 18:39:49 10° 21° (NNE) 1,305 4.1 -14.4°
Sets 18:41:59 0° 2° (N) 2,108 5.4 -14.7°
